This is the latest recevied weather packets stored in our database for station/object JE7UPL-13. If no packets are shown the sender has not sent any weather packets the latest 10 day(s).
| Time | Temp. | Humidity | Pressure | Rain* | Wind** | Luminosity | Snow |
|---|---|---|---|---|---|---|---|
| 1777791604 | 14.44° C | 73% | 1002.7 hPa | 0 mm | - | - | - |
| 1777790704 | 14.44° C | 72% | 1002.6 hPa | 0 mm | - | - | - |
| 1777789805 | 15° C | 65% | 1002.4 hPa | 0 mm | - | - | - |
| 1777788905 | 15.56° C | 63% | 1002.3 hPa | 0 mm | - | - | - |
| 1777788005 | 15° C | 67% | 1002.1 hPa | 0 mm | - | - | - |
| 1777787104 | 15.56° C | 63% | 1002.1 hPa | 0 mm | - | - | - |
| 1777786205 | 16.67° C | 61% | 1002 hPa | 0 mm | - | - | - |
| 1777785304 | 16.67° C | 59% | 1001.9 hPa | 0 mm | - | - | - |
| 1777784405 | 17.78° C | 55% | 1001.9 hPa | 0 mm | - | - | - |
| 1777783504 | 21.11° C | 37% | 1002 hPa | 0 mm | - | - | - |
| 1777782604 | 21.67° C | 33% | 1002.1 hPa | 0 mm | - | - | - |
| 1777781705 | 22.78° C | 30% | 1002.4 hPa | 0 mm | - | - | - |
| 1777780805 | 23.89° C | 25% | 1002.2 hPa | 0 mm | - | - | - |
| 1777779905 | 23.33° C | 25% | 1002.6 hPa | 0 mm | - | - | - |
| 1777779005 | 23.33° C | 23% | 1003.1 hPa | 0 mm | - | - | - |
| 1777778104 | 22.78° C | 22% | 1003.3 hPa | 0 mm | - | - | - |
| 1777777205 | 23.89° C | 24% | 1003.4 hPa | 0 mm | - | - | - |
| 1777776304 | 23.33° C | 26% | 1003.9 hPa | 0 mm | - | - | - |
| 1777775406 | 22.78° C | 26% | 1004.1 hPa | 0 mm | - | - | - |
| 1777774505 | 22.78° C | 26% | 1004.1 hPa | 0 mm | - | - | - |
| 1777773605 | 22.78° C | 28% | 1004.5 hPa | 0 mm | - | - | - |
| 1777772705 | 22.22° C | 28% | 1004.7 hPa | 0 mm | - | - | - |
| 1777771806 | 22.22° C | 29% | 1004.9 hPa | 0 mm | - | - | - |
| 1777770905 | 21.67° C | 31% | 1004.9 hPa | 0 mm | - | - | - |
| 1777770006 | 22.22° C | 30% | 1005.6 hPa | 0 mm | - | - | - |
* Rain latest hour (hover to see other rain measurements)
** Current wind speed in m/s (hover to see current wind gust speed)